Wind_Speed
14 16 13 9 18 28 28 28 26 28 31 31 32 28 31 27 25 25 23 21 23 18 20 23 25 26 28 31 32 32 31 29 25 16 3 13 14 3 14 14 13 13 9
10 14 18 23 26 21 24 24 20 23 25 30 30 28 28 25 29 29 19 16 19 17 20 21 21 22 26 27 31 33 30 24 23 20 15 12 7 11 12 10 9 7 14
1 5 10 11 15 19 22 23 22 23 24 25 27 28 30 32 29 28 25 25 21 20 21 21 19 20 25 25 27 29 28 24 22 15 13 10 9 8 6 6 7 12 11
3 4 7 8 12 15 19 21 19 21 24 25 27 28 29 27 24 25 27 24 21 23 17 12 11 18 14 15 13 15 19 18 12 9 8 9 8 7 2 1 4 5 8
8 8 10 13 16 19 18 21 20 21 22 24 27 31 30 25 25 28 24 18 18 18 13 6 7 7 7 9 11 12 19 15 7 6 7 8 8 5 5 5 5 7 7
11 13 14 17 18 20 21 21 23 22 22 23 25 23 21 26 25 24 24 16 13 10 7 6 2 2 2 5 6 4 3 8 9 13 14 11 8 8 10 8 11 14 8
16 16 16 17 20 20 21 19 23 22 21 22 26 26 26 25 25 22 18 13 8 10 10 8 6 2 2 3 4 3 9 10 9 8 8 8 5 5 6 6 7 9 10
19 19 19 18 20 22 22 23 20 21 20 22 24 24 18 23 20 16 14 15 15 12 11 9 11 5 5 8 7 7 6 5 5 3 2 3 3 3 2 3 4 5 4
23 23 23 24 24 24 25 25 23 20 24 25 21 19 19 20 16 15 16 17 15 14 13 11 8 9 11 13 11 10 7 4 5 4 2 3 4 4 3 2 2 3 3
25 27 29 28 29 29 26 26 25 23 24 22 20 19 16 19 14 17 17 16 19 18 16 15 12 10 12 13 9 8 8 7 2 3 2 1 1 3 2 7 2 3 4
28 28 27 28 31 31 31 27 29 26 22 22 19 18 18 19 15 17 19 16 15 14 13 12 12 11 10 10 11 9 10 4 8 7 7 4 3 2 0 1 3 1 4
25 28 29 31 25 23 25 28 27 27 26 29 22 19 18 20 15 19 24 18 15 15 13 15 10 10 9 9 8 10 12 13 6 6 4 3 3 2 3 4 7 5 4
21 21 21 17 15 17 19 22 22 22 23 22 23 23 24 20 25 26 25 20 20 18 16 14 12 11 12 13 13 16 12 6 5 4 3 3 2 4 2 4 5 9 11
22 20 20 19 16 13 11 14 17 17 22 21 24 24 24 25 23 25 20 21 18 13 15 17 17 17 12 11 10 8 7 6 7 5 4 2 1 1 1 2 3 4 3
20 18 19 15 13 13 8 7 8 10 13 17 23 26 30 29 26 22 16 16 13 12 15 15 16 9 10 9 7 5 5 4 4 3 3 2 1 1 2 2 2 3 3
18 16 19 22 22 24 17 12 8 3 10 20 23 23 27 23 22 18 15 13 12 13 10 6 8 8 8 8 6 4 3 4 2 1 2 2 2 2 2 2 2 2 2
15 15 17 17 20 24 27 30 29 26 22 23 23 23 22 20 15 20 10 11 15 11 9 7 7 7 7 6 5 3 2 3 4 2 2 2 2 3 4 3 3 3 4
16 21 17 15 14 19 22 26 31 34 34 31 28 25 22 21 20 16 17 13 10 7 5 9 8 7 5 4 3 1 0 2 2 3 3 3 4 5 6 5 5 5 5
11 14 16 17 16 21 22 23 23 25 25 23 23 21 18 14 12 12 11 6 5 6 6 7 6 5 4 3 2 1 3 3 6 5 5 5 6 6 7 7 7 9 9
9 10 7 5 9 9 11 13 16 19 21 20 17 15 14 14 8 4 3 3 4 5 3 3 5 6 4 3 2 3 4 5 5 5 6 7 7 8 8 8 8 9 10
1 4 6 6 6 5 6 7 7 6 6 4 3 2 2 3 4 8 10 8 6 5 6 4 4 5 5 5 7 6 6 7 7 8 9 9 9 10 10 10 10 11 12
4 3 2 3 3 2 2 4 4 5 5 6 7 8 5 6 9 9 6 8 5 4 4 6 5 4 6 6 7 7 8 8 8 9 10 11 11 12 12 13 15 16 16
3 2 1 1 2 4 3 4 3 3 5 5 5 10 1 4 7 3 2 2 2 3 3 3 4 4 5 6 9 9 10 11 12 17 16 13 14 16 19 19 20 20 21
2 1 0 1 2 2 3 2 2 1 2 1 2 2 2 1 3 3 1 3 4 5 5 7 7 7 8 8 9 12 14 16 17 14 16 22 27 24 22 23 26 26 26
2 1 1 1 1 1 2 2 2 1 1 1 1 1 3 5 5 6 5 6 7 7 7 9 9 10 10 11 14 13 18 21 21 25 26 26 23 24 26 25 26 24 28
3 3 2 1 0 1 1 1 2 3 4 4 5 5 7 8 8 4 10 9 9 15 10 10 12 10 10 13 17 19 22 24 27 26 25 25 22 21 22 24 24 25 27
Wind_Direction
222 231 235 220 244 256 263 259 253 247 237 241 240 237 242 232 220 224 223 221 246 256 264 270 275 276 269 266 250 245 243 246 248 254 257 243 271 286 249 236 233 237 253
234 222 229 264 264 264 262 264 256 249 246 245 240 234 234 224 218 235 234 227 237 272 280 273 276 273 267 260 256 243 245 236 243 241 243 248 211 189 210 232 203 190 211
325 273 286 290 276 265 262 256 253 252 247 243 242 236 226 224 231 232 234 238 258 288 285 282 276 286 271 259 255 244 235 240 238 245 235 217 182 195 203 207 205 217 222
342 308 290 281 272 273 275 269 260 255 247 244 237 233 229 237 227 229 235 245 272 285 284 269 289 299 288 253 236 226 233 237 228 217 211 199 179 157 228 194 199 202 203
322 304 293 288 289 285 268 265 261 253 251 241 234 234 240 233 232 235 243 259 264 263 258 270 287 308 275 205 216 204 197 186 191 215 206 171 174 174 180 192 207 214 230
310 300 297 292 279 278 277 269 266 257 243 232 241 241 236 227 245 244 246 254 226 233 232 237 154 47 41 208 216 207 219 225 207 233 234 228 231 231 222 245 252 252 241
306 302 294 287 287 281 271 265 260 250 242 235 234 234 229 236 234 242 216 207 213 218 213 190 167 105 54 69 87 179 201 217 232 238 234 228 219 213 249 229 227 251 263
308 306 299 288 278 278 275 268 257 261 252 241 237 230 219 216 224 205 200 191 201 202 192 189 179 174 150 117 113 110 114 145 148 110 206 200 232 225 223 241 243 258 267
311 305 297 292 281 270 277 274 267 254 252 242 231 215 204 224 217 218 205 198 197 175 180 182 178 175 160 140 133 126 120 116 161 195 230 261 259 270 264 189 279 279 278
311 303 294 284 281 277 262 270 268 261 250 240 221 217 220 236 232 207 198 191 203 208 198 188 187 170 163 164 143 141 136 139 136 39 75 230 155 82 146 167 159 282 287
314 304 301 286 273 272 274 254 258 252 258 227 223 224 217 229 220 213 197 202 186 174 172 180 185 178 175 171 164 153 172 163 149 132 110 112 127 85 79 341 284 358 280
337 328 308 301 276 271 262 262 255 255 255 234 228 225 239 239 218 190 176 179 175 169 162 190 184 177 166 159 160 139 130 123 129 124 152 189 193 213 271 287 300 328 332
337 342 342 327 308 289 269 262 259 245 234 234 236 199 186 192 183 177 175 180 168 165 171 185 163 142 134 127 125 124 106 114 146 146 186 223 248 266 337 348 328 342 351
0 3 10 3 353 342 312 265 245 236 244 234 217 186 183 176 169 167 174 172 170 178 161 140 132 123 133 116 110 105 124 131 135 142 151 210 244 304 298 313 337 331 341
13 27 37 29 23 17 24 296 302 262 245 222 197 175 166 153 147 133 136 148 134 143 136 130 113 125 115 116 124 115 109 90 110 127 141 188 237 305 303 320 329 340 331
22 42 49 47 61 65 77 90 84 138 177 172 149 152 143 139 130 118 116 129 133 124 114 136 133 160 153 141 129 112 117 92 134 153 197 215 236 271 265 318 323 327 325
32 33 41 51 74 79 80 87 110 119 113 123 136 144 144 136 129 115 137 115 142 159 147 148 163 178 158 144 124 107 108 177 232 184 219 237 244 260 288 260 281 306 311
37 43 43 44 65 74 75 83 90 93 92 95 95 94 98 100 100 120 128 139 154 156 150 188 194 179 171 150 125 107 341 249 231 233 247 260 258 255 262 269 277 281 294
52 55 57 64 70 75 73 72 78 84 93 95 99 102 100 113 137 148 153 184 230 201 204 210 200 185 180 175 180 302 281 238 230 232 254 260 258 263 265 268 277 288 290
60 49 51 75 76 64 66 73 80 78 80 81 82 85 109 127 124 123 159 186 260 234 227 230 218 204 213 190 237 291 297 289 287 286 272 263 261 262 265 273 280 285 291
50 60 56 70 46 61 81 89 112 107 105 93 102 113 152 221 232 249 241 251 235 249 256 273 217 206 219 257 249 266 287 285 278 274 273 267 264 263 265 270 279 286 289
265 291 339 26 22 354 298 254 214 215 217 220 212 225 234 260 257 271 249 226 237 242 259 265 229 264 274 268 262 255 278 276 273 270 270 272 272 274 274 272 272 278 282
272 299 308 344 345 333 347 313 296 284 279 259 239 224 266 230 251 261 280 268 251 238 258 238 257 258 264 261 256 252 259 271 271 265 257 264 274 272 273 271 269 271 277
227 296 332 68 12 45 27 31 46 174 152 137 119 170 204 233 246 230 256 270 239 246 245 235 250 251 260 264 269 269 264 267 266 271 272 267 262 265 273 270 275 273 270
179 185 195 268 313 7 18 24 16 353 265 239 247 284 264 267 258 265 259 264 249 260 255 255 251 253 270 272 274 265 274 275 278 279 281 275 272 268 270 271 272 272 271
186 229 231 220 344 9 351 330 307 295 285 288 284 263 267 270 254 271 262 302 240 282 277 303 278 280 261 289 271 276 281 282 289 288 282 278 274 275 276 281 282 280 281
Height
1494 1487 1492 1490 1492 1494 1497 1494 1491 1494 1496 1497 1501 1501 1501 1503 1506 1507 1509 1511 1510 1510 1510 1510 1508 1506 1501 1500 1501 1500 1498 1500 1503 1509 1512 1509 1505 1506 1512 1512 1513 1511 1513
1491 1490 1490 1492 1488 1491 1491 1490 1487 1487 1489 1490 1495 1495 1496 1498 1499 1500 1502 1505 1502 1503 1503 1501 1499 1497 1492 1491 1491 1491 1492 1493 1497 1500 1505 1506 1506 1508 1508 1509 1513 1511 1510
1489 1491 1490 1487 1486 1487 1485 1485 1483 1482 1483 1485 1488 1489 1489 1491 1492 1493 1494 1496 1495 1495 1495 1493 1492 1489 1483 1483 1483 1484 1487 1488 1489 1493 1496 1498 1501 1504 1506 1506 1506 1507 1510
1488 1488 1486 1486 1486 1485 1483 1480 1477 1477 1477 1479 1482 1482 1483 1485 1486 1488 1489 1489 1489 1488 1487 1488 1486 1483 1478 1478 1478 1480 1483 1485 1484 1488 1491 1492 1496 1499 1500 1503 1505 1504 1506
1485 1485 1483 1481 1481 1478 1477 1475 1472 1472 1472 1474 1475 1475 1476 1478 1479 1481 1483 1484 1484 1484 1484 1483 1483 1480 1479 1476 1476 1477 1479 1480 1486 1487 1488 1491 1492 1496 1498 1501 1503 1504 1504
1481 1480 1478 1476 1475 1472 1470 1468 1466 1465 1466 1467 1467 1468 1470 1471 1472 1475 1477 1478 1479 1480 1479 1480 1481 1480 1478 1477 1476 1478 1480 1483 1485 1487 1489 1491 1491 1494 1496 1495 1500 1502 1502
1475 1472 1470 1470 1468 1467 1464 1462 1460 1459 1459 1459 1459 1460 1462 1465 1465 1468 1470 1472 1475 1476 1478 1478 1480 1477 1477 1477 1476 1478 1481 1484 1485 1487 1487 1489 1490 1492 1493 1493 1497 1499 1500
1469 1467 1464 1462 1462 1461 1460 1456 1455 1452 1452 1453 1452 1453 1455 1457 1459 1462 1465 1468 1469 1473 1476 1478 1476 1473 1474 1477 1478 1480 1482 1483 1484 1487 1487 1489 1489 1491 1493 1495 1497 1499 1501
1462 1459 1458 1455 1452 1451 1450 1448 1447 1447 1446 1447 1448 1449 1452 1453 1455 1459 1462 1464 1466 1467 1472 1474 1475 1470 1471 1474 1476 1479 1482 1483 1484 1485 1488 1489 1490 1492 1493 1495 1497 1498 1500
1456 1452 1448 1445 1444 1441 1440 1440 1439 1440 1441 1443 1444 1445 1449 1450 1452 1456 1460 1462 1462 1466 1467 1470 1468 1470 1470 1472 1476 1476 1481 1484 1484 1484 1486 1488 1490 1491 1492 1493 1495 1498 1499
1448 1444 1439 1436 1434 1432 1430 1431 1432 1432 1435 1437 1439 1441 1445 1446 1449 1453 1457 1459 1461 1463 1465 1467 1467 1466 1469 1470 1473 1476 1479 1480 1483 1484 1485 1491 1493 1493 1493 1492 1491 1493 1496
1442 1438 1433 1427 1423 1423 1422 1422 1424 1426 1428 1432 1433 1436 1439 1442 1446 1450 1455 1458 1461 1464 1466 1464 1466 1468 1467 1469 1472 1473 1477 1480 1483 1484 1488 1491 1492 1492 1493 1490 1488 1489 1490
1439 1433 1427 1420 1417 1415 1414 1414 1417 1420 1422 1427 1430 1429 1433 1438 1442 1449 1452 1457 1461 1463 1463 1463 1467 1468 1468 1469 1472 1474 1477 1481 1482 1483 1487 1490 1490 1488 1486 1488 1488 1486 1486
1438 1433 1427 1422 1417 1413 1411 1411 1413 1416 1420 1423 1425 1428 1431 1436 1444 1446 1452 1456 1461 1464 1463 1464 1466 1469 1470 1470 1473 1476 1477 1478 1481 1483 1485 1488 1488 1488 1489 1486 1487 1486 1487
1442 1436 1431 1426 1420 1416 1412 1412 1411 1416 1418 1419 1423 1426 1429 1436 1443 1449 1458 1456 1457 1468 1466 1469 1467 1473 1470 1473 1475 1478 1478 1479 1481 1482 1483 1485 1487 1487 1488 1486 1485 1485 1485
1447 1442 1438 1434 1428 1423 1418 1416 1415 1415 1418 1422 1425 1430 1434 1440 1445 1453 1455 1459 1461 1465 1468 1471 1470 1476 1476 1475 1475 1477 1478 1478 1480 1483 1483 1483 1485 1486 1486 1486 1485 1485 1484
1453 1450 1445 1441 1436 1432 1429 1425 1423 1426 1429 1430 1434 1436 1441 1441 1446 1452 1459 1456 1460 1470 1470 1471 1475 1478 1476 1474 1473 1475 1477 1478 1480 1482 1482 1482 1483 1484 1485 1485 1484 1483 1482
1458 1454 1451 1449 1444 1442 1440 1437 1434 1434 1436 1439 1440 1442 1445 1447 1448 1455 1456 1461 1466 1467 1468 1473 1477 1476 1474 1472 1472 1474 1476 1478 1479 1480 1480 1480 1481 1483 1484 1482 1482 1481 1479
1462 1460 1458 1456 1455 1452 1449 1447 1447 1447 1447 1449 1450 1451 1452 1456 1461 1463 1464 1465 1469 1471 1470 1473 1474 1472 1472 1471 1472 1473 1475 1476 1477 1477 1478 1478 1479 1481 1482 1480 1479 1477 1476
1464 1463 1461 1461 1460 1460 1458 1456 1456 1456 1455 1455 1456 1457 1460 1462 1464 1464 1465 1465 1468 1470 1469 1470 1469 1470 1470 1470 1471 1473 1474 1475 1475 1476 1477 1477 1477 1479 1478 1477 1476 1474 1473
1466 1465 1464 1464 1463 1462 1462 1461 1460 1460 1460 1461 1461 1462 1462 1462 1462 1463 1465 1466 1466 1467 1467 1467 1467 1468 1469 1469 1470 1472 1473 1474 1474 1475 1475 1475 1475 1474 1474 1474 1472 1471 1469
1465 1465 1464 1464 1464 1463 1463 1462 1462 1462 1462 1463 1463 1463 1463 1463 1463 1462 1462 1463 1464 1464 1465 1465 1466 1467 1467 1468 1469 1469 1471 1471 1472 1473 1473 1473 1472 1472 1470 1470 1469 1467 1466
1464 1463 1463 1463 1463 1462 1462 1462 1462 1462 1460 1460 1460 1461 1461 1462 1462 1463 1462 1463 1463 1464 1465 1465 1465 1465 1467 1467 1467 1468 1469 1469 1468 1468 1468 1468 1467 1467 1466 1465 1464 1462 1460
1462 1463 1463 1464 1463 1463 1462 1462 1462 1462 1462 1462 1462 1462 1462 1462 1462 1461 1462 1462 1462 1463 1463 1463 1463 1464 1465 1465 1465 1465 1465 1465 1465 1463 1463 1461 1461 1460 1460 1459 1456 1456 1453
1461 1462 1463 1463 1463 1463 1462 1462 1461 1461 1461 1461 1460 1461 1461 1460 1460 1459 1459 1460 1461 1461 1460 1461 1462 1461 1461 1462 1461 1461 1459 1460 1459 1458 1456 1454 1454 1453 1452 1451 1448 1446 1446
1460 1462 1462 1463 1463 1462 1462 1462 1462 1461 1460 1459 1458 1458 1457 1456 1456 1456 1458 1457 1457 1457 1457 1457 1457 1458 1458 1458 1456 1455 1454 1453 1451 1450 1448 1448 1446 1445 1444 1443 1441 1439 1438